Weather History for Cleveland Burke, OH

Change the Weather History Date:

Thursday, July 25, 2013

  Actual Average Record
Temperature  
Mean Temperature 66 °F -  
Max Temperature 73 °F 79 °F 90 °F (2012)
Min Temperature 60 °F 65 °F 57 °F (2014)
Cooling Degree Days 2    
Growing Degree Days 16 (Base 50)    
Moisture  
Dew Point 52 °F    
Average Humidity 58    
Maximum Humidity 75    
Minimum Humidity 48    
Precipitation  
Precipitation 0.00 in - - ()
Sea Level Pressure  
Sea Level Pressure 30.07 in    
Wind  
Wind Speed 7 mph (East)    
Max Wind Speed 17 mph    
Max Gust Speed 23 mph    
Visibility 10 miles    
Events      
Averages and records for this station are not official NWS values.
T = Trace of Precipitation, MM = Missing Value Source: NWS Daily Summary

Daily Weather History Graph

Daily Weather History Graph

Search for Another Location

Airport:

Trip Planner

Search our weather history database for the weather conditions in past years. The results will help you decide how hot, cold, wet, or windy it might be!

Date:

Astronomy

Jul. 25, 2013 Rise Set
Actual Time 6:14 AM EDT 8:51 PM EDT
Civil Twilight 5:42 AM EDT 9:22 PM EDT
Nautical Twilight 5:03 AM EDT 10:02 PM EDT
Astronomical Twilight 4:17 AM EDT 10:47 PM EDT
Moon 10:27 PM EDT (7/25) 9:46 AM EDT (7/25)
Length of Visible Light 15h 39m
Length of Day
14h 36m
Waning Gibbous, 88% of the Moon is Illuminated
Jul 25
Waning Gibbous
Jul 29
Last Quarter
Aug 6
New
Aug 14
First Quarter
Aug 20
Full

Hourly Weather History & Observations

Time (EDT) Temp. Dew Point Humidity Pressure Visibility Wind Dir Wind Speed Gust Speed Precip Events Conditions
12:53 AM 61.0 °F 51.1 °F 70% 30.02 in 10.0 mi SSE 3.5 mph - N/A   Clear
1:53 AM 60.1 °F 52.0 °F 75% 30.03 in 10.0 mi SSE 5.8 mph - N/A   Scattered Clouds
2:53 AM 60.1 °F 51.1 °F 72% 30.03 in 10.0 mi SE 6.9 mph - N/A   Clear
3:53 AM 62.1 °F 50.0 °F 65% 30.04 in 10.0 mi SE 5.8 mph - N/A   Overcast
4:53 AM 62.1 °F 50.0 °F 65% 30.04 in 10.0 mi SE 4.6 mph - N/A   Mostly Cloudy
5:53 AM 61.0 °F 48.9 °F 64% 30.05 in 10.0 mi ESE 4.6 mph - N/A   Scattered Clouds
6:53 AM 62.1 °F 46.9 °F 58% 30.06 in 10.0 mi East 9.2 mph - N/A   Clear
7:02 AM 62.6 °F 46.4 °F 55% 30.06 in 10.0 mi East 9.2 mph - N/A   Partly Cloudy
7:53 AM 63.0 °F 48.0 °F 58% 30.07 in 10.0 mi ESE 6.9 mph - N/A   Clear
8:53 AM 66.0 °F 48.0 °F 52% 30.08 in 10.0 mi ESE 9.2 mph - N/A   Clear
9:53 AM 66.9 °F 48.0 °F 51% 30.09 in 10.0 mi East 11.5 mph - N/A   Clear
10:53 AM 70.0 °F 50.0 °F 49% 30.09 in 10.0 mi ENE 6.9 mph - N/A   Clear
11:53 AM 72.0 °F 51.1 °F 48% 30.09 in 10.0 mi ENE 8.1 mph - N/A   Clear
12:53 PM 73.0 °F 53.1 °F 49% 30.09 in 10.0 mi NNE 8.1 mph - N/A   Clear
1:53 PM 72.0 °F 55.0 °F 55% 30.08 in 10.0 mi North 10.4 mph - N/A   Clear
2:53 PM 73.0 °F 55.9 °F 55% 30.09 in 10.0 mi NNE 10.4 mph - N/A   Clear
3:53 PM 72.0 °F 55.0 °F 55% 30.10 in 10.0 mi NNE 15.0 mph 20.7 mph N/A   Clear
4:53 PM 72.0 °F 57.0 °F 59% 30.09 in 10.0 mi NE 17.3 mph 21.9 mph N/A   Clear
5:16 PM 71.6 °F 55.4 °F 57% 30.10 in 10.0 mi NE 13.8 mph 23.0 mph N/A   Partly Cloudy
5:53 PM 71.1 °F 55.9 °F 59% 30.09 in 10.0 mi NE 15.0 mph 21.9 mph N/A   Clear
6:53 PM 70.0 °F 55.0 °F 59% 30.08 in 10.0 mi NE 12.7 mph - N/A   Clear
7:53 PM 70.0 °F 51.1 °F 51% 30.08 in 10.0 mi NE 8.1 mph - N/A   Clear
8:53 PM 68.0 °F 52.0 °F 56% 30.09 in 10.0 mi ENE 4.6 mph - N/A   Clear
9:53 PM 68.0 °F 52.0 °F 56% 30.09 in 10.0 mi East 4.6 mph - N/A   Clear
10:53 PM 66.0 °F 53.1 °F 63% 30.09 in 10.0 mi East 3.5 mph - N/A   Clear
11:53 PM 66.0 °F 53.1 °F 63% 30.09 in 10.0 mi ESE 3.5 mph - N/A   Clear